FGRST (GLAST)

Last updated on Sun Jun 21 2026 00:02:59 GMT+0000 (Coordinated Universal Time)

1 33053U 08029A 26171.30606279 .00002090 00000+0 70461-4 0 9995 2 33053 25.5800 182.8251 0008045 5.8288 354.2343 15.23956518996318
UTC large
Height (km)
Speed (km/s)
/
Latitude / Longitude
Inclination (degrees)
Orbital Period (minutes)
Azimuth
Elevation
Range (km)
Doppler Factor

Next 0 passes for location: London (51.5072 / 0.1276)

No passes found over London.
FGRST (GLAST)